Location: Unspecified
(0.0000°N, 0.0000°E)
Time: 05:34:14
(UTC+00:00)

Transit 2A Rocket - All Passes

Search period start: 28 November 2014 00:00
Search period end: 08 December 2014 00:00
Orbit: 588 x 919 km, 66.7° (Epoch: 26 November)

Date Brightness Start Highest point End Pass type
(mag) Time Alt. Az. Time Alt. Az. Time Alt. Az.
28 Nov - 07:26:57 10° SSW 07:31:07 55° WNW 07:35:23 10° N daylight
28 Nov - 18:14:15 10° NNE 18:19:20 28° ENE 18:24:21 10° SE visible
28 Nov - 19:56:49 10° NW 20:01:46 26° WSW 20:06:38 10° SSW visible
29 Nov - 06:45:10 10° S 06:49:22 58° ESE 06:53:38 10° NNE daylight
29 Nov - 17:34:28 10° NE 17:37:29 14° ENE 17:40:29 10° E daylight
29 Nov - 19:14:06 10° NW 19:20:00 50° WSW 19:25:45 10° S visible
30 Nov - 06:04:09 10° SSE 06:07:36 24° ESE 06:11:06 10° NE daylight
30 Nov - 07:48:07 10° W 07:49:56 12° WNW 07:51:46 10° NW daylight
30 Nov - 18:32:05 10° NNW 18:38:13 86° ENE 18:44:12 10° SSE visible
01 Dec - 05:25:31 10° ESE 05:25:50 10° ESE 05:26:09 10° ESE visible
01 Dec - 07:04:25 10° SW 07:08:06 28° WNW 07:11:54 10° N daylight
01 Dec - 17:50:37 10° N 17:56:25 45° ENE 18:02:04 10° SE daylight
01 Dec - 19:35:21 10° WNW 19:38:49 16° WSW 19:42:15 10° SW visible
02 Dec - 06:22:05 10° SSW 06:26:19 71° WNW 06:30:41 10° NNE daylight
02 Dec - 17:09:51 10° NNE 17:14:35 23° ENE 17:19:14 10° ESE daylight
02 Dec - 18:51:46 10° NW 18:57:02 31° WSW 19:02:10 10° S visible
03 Dec - 05:40:29 10° S 05:44:34 46° ESE 05:48:45 10° NE daylight
03 Dec - 16:30:48 10° NE 16:32:43 11° ENE 16:34:37 10° E daylight
03 Dec - 18:09:15 10° NNW 18:15:15 59° WSW 18:21:05 10° S visible
04 Dec - 04:59:43 10° SSE 05:02:49 20° ESE 05:05:57 10° ENE visible
04 Dec - 06:42:32 10° WSW 06:45:07 16° WNW 06:47:45 10° NNW daylight
04 Dec - 17:27:22 10° NNW 17:33:28 73° ENE 17:39:24 10° SSE daylight
05 Dec - 05:59:23 10° SW 06:03:17 35° WNW 06:07:20 10° N daylight
05 Dec - 16:46:03 10° N 16:51:39 38° ENE 16:57:07 10° SE daylight
05 Dec - 18:30:00 10° WNW 18:34:04 19° WSW 18:38:03 10° SSW visible
06 Dec - 05:17:15 10° SSW 05:21:30 89° WNW 05:25:55 10° NNE visible
06 Dec - 16:05:32 10° NNE 16:09:48 20° ENE 16:14:01 10° ESE daylight
06 Dec - 17:46:46 10° NW 17:52:17 36° WSW 17:57:38 10° S daylight
07 Dec - 04:35:49 10° S 04:39:45 36° ESE 04:43:48 10° NE visible
07 Dec - 17:04:25 10° NNW 17:10:30 70° WSW 17:16:23 10° SSE daylight
